This demonstration page uses our WeatherBlox Daily Observations layout. Learn more.

Left ArrowRight Arrow

41.86663, -103.66717

Hourly Observations for March 30, 2017

Temp ( °F °C ) Dew Point ( °F °C ) Humidity (%) Winds ( mph kmh ) Pressure ( in mb ) Visibility ( mi km ) Precip ( " mm )
12:53 am 00:53 Clear 35 1.7 32 0 89 89 ENE 5 7 29.92 1013 10 16 0.00 0.00
1:53 am 01:53 Clear 35 1.7 31 -0.6 85 85 E 5 7 29.88 1012 10 16 0.00 0.00
2:53 am 02:53 Clear 34 1.1 30 -1.1 85 85 NE 3 6 29.85 1011 10 16 0.00 0.00
3:53 am 03:53 Clear 33 0.6 30 -1.1 89 89 NE 5 7 29.82 1010 10 16 0.00 0.00
4:53 am 04:53 Clear 33 0.6 29 -1.7 85 85 Calm 29.78 1009 10 16 0.00 0.00
5:53 am 05:53 Clear 32 0 30 -1.1 92 92 Calm 29.78 1008 10 16 0.00 0.00
6:53 am 06:53 Sunny 32 0 29 -1.7 88 88 Calm 29.79 1009 10 16 0.00 0.00
7:53 am 07:53 Sunny 35 1.7 32 0 89 89 Calm 29.79 1009 10 16 0.00 0.00
8:53 am 08:53 Sunny 38 3.3 34 1.1 86 86 Calm 29.79 1009 10 16 0.00 0.00
9:53 am 09:53 Sunny 41 5 36 2.2 82 82 SSE 3 6 29.78 1009 10 16 0.00 0.00
10:53 am 10:53 Sunny 45 7.2 39 3.9 80 80 SE 5 7 29.77 1008 10 16 0.00 0.00
11:53 am 11:53 Sunny 49 9.4 39 3.9 69 69 ESE 7 11 29.74 1007 10 16 0.00 0.00
12:53 pm 12:53 Sunny 52 11.1 40 4.4 64 64 E 9 15 29.72 1006 10 16 0.00 0.00
1:53 pm 13:53 Sunny 56 13.3 40 4.4 55 55 ESE 9 15 29.69 1005 10 16 0.00 0.00
2:53 pm 14:53 Mostly Sunny 58 14.4 39 3.9 50 50 ESE 9 15 29.66 1004 10 16 0.00 0.00
3:53 pm 15:53 Cloudy 60 15.6 39 3.9 46 46 ESE 12 19 29.65 1004 10 16 0.00 0.00
4:53 pm 16:53 Cloudy 58 14.4 38 3.3 48 48 E 12 19 29.64 1004 10 16 0.00 0.00
5:53 pm 17:53 Cloudy 57 13.9 40 4.4 53 53 E 9 15 29.67 1005 10 16 0.00 0.00
6:53 pm 18:53 Cloudy 55 12.8 41 5 59 59 E 9 15 29.68 1005 10 16 0.00 0.03
7:53 pm 19:53 Mostly Cloudy 51 10.6 41 5 69 69 E 10 17 29.69 1006 10 16 0.00 0.00
8:53 pm 20:53 Partly Cloudy 49 9.4 40 4.4 71 71 E 10 17 29.71 1006 10 16 0.00 0.00
9:53 pm 21:53 Mostly Clear 45 7.2 39 3.9 80 80 ESE 9 15 29.73 1007 10 16 0.00 0.00
10:53 pm 22:53 Cloudy 46 7.8 38 3.3 73 73 E 12 19 29.73 1007 10 16 0.00 0.00
11:53 pm 23:53 Mostly Cloudy 45 7.2 37 2.8 74 74 ESE 18 30 29.75 1007 10 16 0.00 0.00

Powered by AerisWeather